When you browse on this site, cookies collect data to enhance your experience and personalize the content and advertising you see.
Visit our Privacy Policy to learn more. By continuing to use the site, you agree to this use of cookies and data.
  • In Schweiz
  • Länderverzeichnis
  • Für 7 Tage
  • Wassertemperatur
  • Satellitenkarten
  • Wetterkarte
  • Widgets
  • user-avatar
    Anmelden

    Stündliche Wetter Tovsta

    Heute, 18 April, Donnerstag

    Zeit Temperatur Niederschläge Wind Luftdruck Luftfeuchtigkeit
    00:00 +6°C° 0 mm 4 m/S 751 mmHg 83%
    01:00 +5°C° 0 mm 3 m/S 751 mmHg 83%
    02:00 +5°C° 0 mm 3 m/S 751 mmHg 83%
    03:00 +4°C° 0 mm 3 m/S 751 mmHg 83%
    04:00 +4°C° 0 mm 3 m/S 751 mmHg 83%
    05:00 +4°C° 0 mm 3 m/S 751 mmHg 83%
    06:00 +5°C° 0 mm 3 m/S 752 mmHg 78%
    07:00 +7°C° 0 mm 3 m/S 752 mmHg 73%
    08:00 +8°C° 0 mm 3 m/S 752 mmHg 68%
    09:00 +8°C° 0 mm 4 m/S 752 mmHg 62%
    10:00 +10°C° 0 mm 4 m/S 752 mmHg 56%
    11:00 +11°C° 0 mm 4 m/S 752 mmHg 49%
    12:00 +12°C° 0 mm 4 m/S 752 mmHg 47%
    13:00 +12°C° 0 mm 4 m/S 751 mmHg 44%
    14:00 +13°C° 0 mm 3 m/S 751 mmHg 41%
    15:00 +13°C° 0 mm 3 m/S 751 mmHg 42%
    16:00 +12°C° 0 mm 3 m/S 750 mmHg 43%
    17:00 +12°C° 0 mm 3 m/S 750 mmHg 45%
    18:00 +12°C° 0 mm 2 m/S 750 mmHg 49%
    19:00 +11°C° 0 mm 1 m/S 750 mmHg 53%
    20:00 +10°C° 0 mm 1 m/S 749 mmHg 57%
    21:00 +10°C° 0 mm 1 m/S 749 mmHg 58%
    22:00 +10°C° 0 mm 1 m/S 749 mmHg 59%
    23:00 +8°C° 0 mm 2 m/S 749 mmHg 60%

    Morgen, 19 April, Freitag

    Zeit Temperatur Niederschläge Wind Luftdruck Luftfeuchtigkeit
    00:00 +8°C° 0.3 mm 2 m/S 748 mmHg 67%
    01:00 +8°C° 0.3 mm 2 m/S 748 mmHg 73%
    02:00 +8°C° 0.3 mm 1 m/S 748 mmHg 79%
    03:00 +8°C° 0.5 mm 1 m/S 748 mmHg 83%
    04:00 +7°C° 0.5 mm 1 m/S 748 mmHg 86%
    05:00 +6°C° 0.5 mm 1 m/S 747 mmHg 90%
    06:00 +7°C° 0.3 mm 1 m/S 748 mmHg 87%
    07:00 +7°C° 0.3 mm 2 m/S 748 mmHg 84%
    08:00 +8°C° 0.3 mm 2 m/S 748 mmHg 81%
    09:00 +8°C° 0.5 mm 3 m/S 749 mmHg 80%
    10:00 +7°C° 0.5 mm 4 m/S 749 mmHg 79%
    11:00 +7°C° 0.5 mm 4 m/S 749 mmHg 78%
    12:00 +8°C° 0.1 mm 4 m/S 749 mmHg 68%
    13:00 +10°C° 0.1 mm 4 m/S 750 mmHg 58%
    14:00 +11°C° 0.1 mm 4 m/S 750 mmHg 48%
    15:00 +11°C° 0 mm 4 m/S 750 mmHg 47%
    16:00 +11°C° 0 mm 4 m/S 750 mmHg 47%
    17:00 +11°C° 0 mm 4 m/S 750 mmHg 46%
    18:00 +10°C° 0 mm 3 m/S 750 mmHg 52%
    19:00 +8°C° 0 mm 3 m/S 751 mmHg 58%
    20:00 +7°C° 0 mm 2 m/S 751 mmHg 64%
    21:00 +6°C° 0 mm 2 m/S 751 mmHg 66%
    22:00 +6°C° 0 mm 2 m/S 751 mmHg 68%
    23:00 +6°C° 0 mm 2 m/S 752 mmHg 69%

    übermorgen, 20 April, Samstag

    Zeit Temperatur Niederschläge Wind Luftdruck Luftfeuchtigkeit
    00:00 +5°C° 0 mm 2 m/S 751 mmHg 72%
    01:00 +5°C° 0 mm 2 m/S 751 mmHg 74%
    02:00 +4°C° 0 mm 2 m/S 751 mmHg 76%
    03:00 +4°C° 0 mm 2 m/S 751 mmHg 78%
    04:00 +4°C° 0 mm 2 m/S 751 mmHg 80%
    05:00 +3°C° 0 mm 2 m/S 751 mmHg 82%
    06:00 +5°C° 0 mm 2 m/S 751 mmHg 76%
    07:00 +7°C° 0 mm 2 m/S 752 mmHg 70%
    08:00 +8°C° 0 mm 2 m/S 752 mmHg 64%
    09:00 +9°C° 0.1 mm 2 m/S 752 mmHg 58%
    10:00 +10°C° 0.1 mm 2 m/S 752 mmHg 51%
    11:00 +12°C° 0.1 mm 2 m/S 752 mmHg 45%
    12:00 +12°C° 0 mm 2 m/S 751 mmHg 45%
    13:00 +12°C° 0 mm 2 m/S 751 mmHg 44%
    14:00 +13°C° 0 mm 2 m/S 751 mmHg 43%
    15:00 +12°C° 0 mm 2 m/S 751 mmHg 44%
    16:00 +12°C° 0 mm 2 m/S 751 mmHg 45%
    17:00 +12°C° 0 mm 2 m/S 750 mmHg 46%
    18:00 +10°C° 0 mm 2 m/S 750 mmHg 49%
    19:00 +11°C° 0 mm 1 m/S 750 mmHg 52%
    20:00 +10°C° 0 mm 1 m/S 751 mmHg 55%
    21:00 +10°C° 0 mm 1 m/S 750 mmHg 55%
    22:00 +9°C° 0 mm 1 m/S 750 mmHg 55%
    23:00 +9°C° 0 mm 1 m/S 750 mmHg 55%

    21 April, Sonntag

    Zeit Temperatur Niederschläge Wind Luftdruck Luftfeuchtigkeit
    00:00 +9°C° 0 mm 1 m/S 750 mmHg 55%
    01:00 +8°C° 0 mm 1 m/S 750 mmHg 55%
    02:00 +8°C° 0 mm 1 m/S 750 mmHg 55%
    03:00 +8°C° 0 mm 1 m/S 750 mmHg 55%
    04:00 +8°C° 0 mm 1 m/S 750 mmHg 55%
    05:00 +8°C° 0 mm 1 m/S 750 mmHg 56%
    06:00 +8°C° 0 mm 1 m/S 750 mmHg 54%
    07:00 +9°C° 0 mm 1 m/S 750 mmHg 52%
    08:00 +10°C° 0 mm 1 m/S 750 mmHg 51%
    09:00 +10°C° 0 mm 2 m/S 750 mmHg 47%
    10:00 +12°C° 0 mm 2 m/S 750 mmHg 44%
    11:00 +12°C° 0 mm 2 m/S 750 mmHg 41%
    12:00 +12°C° 0 mm 2 m/S 750 mmHg 41%
    13:00 +13°C° 0 mm 2 m/S 750 mmHg 41%
    14:00 +13°C° 0 mm 2 m/S 750 mmHg 41%
    15:00 +13°C° 0 mm 2 m/S 750 mmHg 42%
    16:00 +13°C° 0 mm 2 m/S 750 mmHg 43%
    17:00 +12°C° 0 mm 3 m/S 750 mmHg 44%
    18:00 +12°C° 0 mm 2 m/S 750 mmHg 47%
    19:00 +10°C° 0 mm 2 m/S 750 mmHg 50%
    20:00 +9°C° 0 mm 2 m/S 750 mmHg 53%
    21:00 +9°C° 0 mm 2 m/S 751 mmHg 53%
    22:00 +9°C° 0 mm 2 m/S 751 mmHg 54%
    23:00 +8°C° 0 mm 2 m/S 751 mmHg 54%

    22 April, Montag

    Zeit Temperatur Niederschläge Wind Luftdruck Luftfeuchtigkeit
    00:00 +8°C° 0 mm 2 m/S 751 mmHg 55%
    01:00 +8°C° 0 mm 2 m/S 751 mmHg 56%
    02:00 +8°C° 0 mm 2 m/S 751 mmHg 58%
    03:00 +7°C° 0 mm 2 m/S 751 mmHg 59%
    04:00 +7°C° 0 mm 2 m/S 751 mmHg 60%
    05:00 +7°C° 0 mm 2 m/S 751 mmHg 62%
    06:00 +8°C° 0 mm 3 m/S 751 mmHg 59%
    07:00 +9°C° 0 mm 3 m/S 752 mmHg 57%
    08:00 +11°C° 0 mm 4 m/S 752 mmHg 54%
    09:00 +11°C° 0 mm 4 m/S 752 mmHg 50%
    10:00 +12°C° 0 mm 4 m/S 752 mmHg 46%
    11:00 +13°C° 0 mm 5 m/S 752 mmHg 42%
    12:00 +13°C° 0 mm 4 m/S 752 mmHg 42%
    13:00 +13°C° 0 mm 4 m/S 752 mmHg 42%
    14:00 +13°C° 0 mm 4 m/S 752 mmHg 42%
    15:00 +13°C° 0 mm 3 m/S 752 mmHg 43%
    16:00 +13°C° 0 mm 3 m/S 752 mmHg 44%
    17:00 +13°C° 0 mm 3 m/S 752 mmHg 46%
    18:00 +12°C° 0 mm 3 m/S 752 mmHg 48%
    19:00 +11°C° 0 mm 3 m/S 753 mmHg 51%
    20:00 +10°C° 0 mm 3 m/S 753 mmHg 53%
    21:00 +10°C° 0 mm 3 m/S 753 mmHg 55%
    22:00 +10°C° 0 mm 3 m/S 753 mmHg 56%
    23:00 +9°C° 0 mm 3 m/S 754 mmHg 58%

    23 April, Dienstag

    Zeit Temperatur Niederschläge Wind Luftdruck Luftfeuchtigkeit
    00:00 +9°C° 0 mm 3 m/S 754 mmHg 59%
    01:00 +9°C° 0 mm 3 m/S 754 mmHg 61%
    02:00 +8°C° 0 mm 3 m/S 754 mmHg 62%
    03:00 +8°C° 0 mm 3 m/S 754 mmHg 63%
    04:00 +7°C° 0 mm 3 m/S 754 mmHg 64%
    05:00 +7°C° 0 mm 3 m/S 754 mmHg 65%
    06:00 +9°C° 0 mm 3 m/S 755 mmHg 61%
    07:00 +10°C° 0 mm 4 m/S 755 mmHg 56%
    08:00 +12°C° 0 mm 5 m/S 756 mmHg 51%
    09:00 +13°C° 0 mm 5 m/S 756 mmHg 47%
    10:00 +14°C° 0 mm 4 m/S 756 mmHg 44%
    11:00 +15°C° 0 mm 4 m/S 756 mmHg 40%
    12:00 +15°C° 0 mm 4 m/S 756 mmHg 40%
    13:00 +15°C° 0 mm 4 m/S 755 mmHg 40%
    14:00 +15°C° 0 mm 4 m/S 755 mmHg 41%
    15:00 +14°C° 0 mm 4 m/S 755 mmHg 43%
    16:00 +14°C° 0 mm 4 m/S 755 mmHg 46%
    17:00 +14°C° 0 mm 3 m/S 755 mmHg 48%
    18:00 +12°C° 0 mm 3 m/S 755 mmHg 52%
    19:00 +11°C° 0 mm 3 m/S 755 mmHg 55%
    20:00 +10°C° 0 mm 3 m/S 755 mmHg 59%
    21:00 +9°C° 0 mm 3 m/S 755 mmHg 60%
    22:00 +9°C° 0 mm 3 m/S 755 mmHg 60%
    23:00 +9°C° 0 mm 3 m/S 755 mmHg 61%
    Mehr zeigen